2021/05/04 23:27:34+0000,-41.44,-46.87,-33.93,-48.31,-54.52,-56.55
2021/05/04 23:28:26+0000,-40.79,-47.73,-33.47,-47.43,-55.04,-57.38
2021/05/04 23:29:18+0000,-41.17,-47.78,-33.80,-49.09,-54.43,-56.32
2021/05/04 23:30:10+0000,-41.07,-47.52,-32.31,-47.87,-54.91,-56.61
2021/05/04 23:31:10+0000,-40.53,-46.94,-33.53,-47.72,-53.87,-56.28
2021/05/04 23:32:02+0000,-41.50,-46.57,-33.18,-47.62,-54.99,-56.71
2021/05/04 23:32:54+0000,-40.92,-45.98,-34.08,-47.51,-54.17,-56.86
2021/05/04 23:33:46+0000,-41.27,-46.02,-33.95,-47.38,-54.33,-56.68
2021/05/04 23:34:38+0000,-41.02,-47.43,-33.69,-47.50,-54.55,-57.11
2021/05/04 23:35:30+0000,-40.84,-46.91,-33.74,-48.19,-54.25,-56.99
2021/05/04 23:36:22+0000,-40.76,-46.31,-33.15,-48.04,-54.73,-56.46
2021/05/04 23:37:14+0000,-40.52,-45.90,-33.59,-47.00,-54.13,-57.17
2021/05/04 23:38:06+0000,-40.02,-46.33,-34.45,-48.11,-54.24,-56.20
2021/05/04 23:38:58+0000,-39.86,-47.56,-34.59,-47.85,-54.49,-56.33
2021/05/04 23:39:51+0000,-39.92,-47.13,-33.65,-48.11,-54.82,-57.05
2021/05/04 23:40:43+0000,-40.71,-46.08,-34.56,-45.93,-54.59,-56.59
2021/05/04 23:41:43+0000,-41.06,-47.38,-34.24,-47.35,-54.91,-56.69
2021/05/04 23:42:35+0000,-41.45,-46.41,-33.70,-48.39,-55.73,-57.02
2021/05/04 23:43:27+0000,-41.26,-47.77,-34.17,-47.80,-54.52,-57.26
2021/05/04 23:44:19+0000,-41.27,-46.99,-32.22,-48.30,-54.73,-56.65
2021/05/04 23:45:11+0000,-41.52,-45.70,-33.26,-48.08,-54.59,-55.95
2021/05/04 23:46:03+0000,-40.19,-45.25,-32.77,-47.72,-54.26,-55.62
2021/05/04 23:46:56+0000,-41.04,-44.33,-32.80,-46.31,-53.95,-55.48
2021/05/04 23:47:48+0000,-40.28,-46.22,-32.51,-46.86,-54.20,-55.71
2021/05/04 23:48:40+0000,-39.60,-45.53,-32.01,-47.38,-54.05,-56.11
2021/05/04 23:49:32+0000,-38.56,-45.68,-32.29,-46.33,-54.12,-55.69
2021/05/04 23:50:24+0000,-38.73,-47.60,-33.18,-46.58,-54.41,-55.58
2021/05/04 23:51:26+0000,-39.44,-45.15,-33.40,-46.70,-53.79,-55.37
2021/05/04 23:52:18+0000,-39.87,-45.80,-33.06,-47.35,-53.68,-55.76
2021/05/04 23:53:10+0000,-38.79,-46.00,-32.93,-47.02,-53.87,-56.14
2021/05/04 23:54:02+0000,-38.52,-46.74,-33.40,-47.33,-54.29,-56.06
2021/05/04 23:54:54+0000,-38.72,-46.09,-32.75,-47.44,-53.95,-55.50
2021/05/04 23:55:46+0000,-37.91,-44.55,-34.10,-46.58,-54.13,-55.94
2021/05/04 23:56:38+0000,-38.88,-45.97,-32.22,-47.29,-53.56,-55.81
2021/05/04 23:57:30+0000,-39.32,-47.61,-31.97,-47.04,-54.86,-55.91
2021/05/04 23:58:22+0000,-39.15,-44.89,-34.39,-45.38,-53.69,-56.22
2021/05/04 23:59:14+0000,-39.09,-46.31,-34.09,-46.11,-53.00,-56.12
2021/05/05 00:00:06+0000,-39.52,-46.17,-33.88,-47.66,-52.81,-55.46
2021/05/05 00:01:13+0000,-38.85,-45.91,-34.28,-47.58,-52.83,-55.82
2021/05/05 00:02:05+0000,-39.84,-44.93,-33.86,-47.43,-53.82,-56.00
2021/05/05 00:02:57+0000,-38.55,-46.51,-33.73,-45.30,-53.53,-55.49
2021/05/05 00:03:49+0000,-39.81,-43.50,-33.64,-48.41,-53.40,-54.11
2021/05/05 00:04:41+0000,-39.84,-45.78,-33.35,-48.44,-52.77,-54.24
2021/05/05 00:05:33+0000,-38.80,-44.58,-34.42,-47.42,-52.91,-54.93
2021/05/05 00:06:25+0000,-39.59,-45.87,-34.94,-47.23,-52.79,-53.96
2021/05/05 00:07:17+0000,-39.03,-45.57,-34.57,-47.92,-53.51,-54.91
2021/05/05 00:08:09+0000,-37.72,-46.24,-33.03,-47.61,-53.05,-55.16
2021/05/05 00:09:01+0000,-40.88,-47.18,-31.76,-47.54,-53.35,-55.68
2021/05/05 00:09:53+0000,-41.01,-47.46,-32.75,-48.03,-53.09,-55.14
2021/05/05 00:10:45+0000,-41.44,-46.90,-31.77,-47.76,-53.66,-54.70
2021/05/05 00:11:45+0000,-41.22,-46.13,-32.65,-47.20,-53.47,-54.83
2021/05/05 00:12:37+0000,-40.89,-46.06,-32.97,-47.55,-53.83,-55.38
2021/05/05 00:13:29+0000,-40.73,-46.22,-32.99,-47.41,-53.24,-55.06
2021/05/05 00:14:21+0000,-40.39,-46.28,-34.21,-48.35,-53.19,-54.98
2021/05/05 00:15:13+0000,-40.87,-45.96,-32.94,-47.13,-53.28,-55.05
2021/05/05 00:16:05+0000,-40.95,-44.97,-32.87,-47.62,-53.26,-55.44
2021/05/05 00:16:57+0000,-41.54,-45.62,-33.62,-48.14,-53.86,-55.15
2021/05/05 00:17:49+0000,-40.65,-45.47,-33.61,-48.24,-53.41,-55.11
2021/05/05 00:18:41+0000,-40.87,-45.79,-33.97,-46.99,-52.87,-54.62
2021/05/05 00:19:33+0000,-40.08,-46.30,-33.57,-48.78,-52.83,-54.42
2021/05/05 00:20:25+0000,-40.09,-45.84,-32.60,-47.89,-52.21,-54.72
2021/05/05 00:21:27+0000,-40.53,-45.82,-32.55,-47.56,-52.50,-55.50
2021/05/05 00:22:19+0000,-40.44,-45.90,-32.41,-47.83,-52.90,-55.38
2021/05/05 00:23:11+0000,-40.87,-45.85,-32.98,-46.80,-53.86,-55.24
2021/05/05 00:24:03+0000,-41.35,-45.40,-34.05,-48.23,-53.86,-54.41
2021/05/05 00:24:55+0000,-41.25,-45.24,-32.54,-47.49,-54.06,-54.68
2021/05/05 00:25:47+0000,-41.03,-45.97,-32.47,-47.51,-53.95,-55.48
2021/05/05 00:26:39+0000,-42.07,-45.26,-32.85,-47.67,-54.33,-55.15
2021/05/05 00:27:31+0000,-41.42,-46.44,-32.94,-48.42,-52.89,-54.61
2021/05/05 00:28:23+0000,-41.52,-45.95,-32.69,-47.47,-52.61,-54.96
2021/05/05 00:29:15+0000,-41.47,-45.44,-33.68,-47.24,-52.90,-55.15
2021/05/05 00:30:07+0000,-41.77,-46.00,-33.62,-46.64,-53.82,-55.05
2021/05/05 00:31:09+0000,-41.85,-46.28,-33.59,-47.63,-53.17,-54.95
2021/05/05 00:32:01+0000,-41.38,-45.66,-34.27,-46.96,-54.04,-54.77
2021/05/05 00:32:53+0000,-41.30,-46.17,-33.32,-47.49,-53.63,-54.90
2021/05/05 00:33:45+0000,-41.30,-45.38,-33.43,-48.24,-53.88,-55.12
2021/05/05 00:34:37+0000,-41.39,-45.92,-34.08,-47.95,-53.60,-55.22
2021/05/05 00:35:29+0000,-41.14,-45.20,-34.01,-47.27,-53.36,-54.95
2021/05/05 00:36:21+0000,-41.62,-46.02,-34.16,-47.72,-53.39,-55.44
2021/05/05 00:37:13+0000,-40.29,-46.00,-33.63,-48.08,-53.44,-54.67
2021/05/05 00:38:05+0000,-40.45,-45.75,-33.43,-47.61,-53.62,-55.13
2021/05/05 00:38:57+0000,-40.63,-45.74,-33.91,-47.53,-53.05,-54.85
2021/05/05 00:39:50+0000,-40.26,-45.78,-32.60,-47.22,-52.52,-54.39
2021/05/05 00:40:42+0000,-40.23,-46.29,-32.54,-47.06,-52.45,-54.53
2021/05/05 00:41:43+0000,-40.42,-46.23,-32.13,-47.44,-53.52,-54.98
2021/05/05 00:42:35+0000,-40.54,-46.01,-33.50,-47.68,-53.10,-54.55
2021/05/05 00:43:27+0000,-40.06,-46.13,-33.35,-46.51,-53.45,-54.77
2021/05/05 00:44:19+0000,-38.62,-46.29,-32.97,-47.70,-53.37,-54.87
2021/05/05 00:45:11+0000,-39.88,-45.49,-32.86,-46.13,-52.73,-54.72
2021/05/05 00:46:03+0000,-40.39,-49.35,-33.09,-47.16,-52.87,-55.19
2021/05/05 00:46:55+0000,-42.70,-49.01,-34.24,-47.43,-53.54,-55.28
2021/05/05 00:47:47+0000,-41.36,-49.35,-32.92,-47.87,-53.22,-55.26
2021/05/05 00:48:39+0000,-42.06,-49.67,-31.89,-47.06,-52.42,-54.53
2021/05/05 00:49:31+0000,-42.21,-48.74,-32.65,-47.94,-52.42,-54.29
2021/05/05 00:50:23+0000,-42.35,-49.76,-32.87,-48.18,-52.67,-54.42
2021/05/05 00:51:25+0000,-42.62,-49.47,-32.33,-47.11,-52.70,-55.29
2021/05/05 00:52:17+0000,-43.22,-49.56,-32.60,-47.32,-53.37,-55.07
2021/05/05 00:53:09+0000,-43.64,-48.87,-33.47,-47.94,-53.19,-55.92
2021/05/05 00:54:01+0000,-42.99,-49.42,-32.88,-48.22,-53.85,-55.48
2021/05/05 00:54:53+0000,-42.63,-50.13,-32.92,-48.56,-53.28,-54.30
2021/05/05 00:55:45+0000,-42.76,-49.02,-33.05,-47.09,-52.85,-54.34
2021/05/05 00:56:37+0000,-42.40,-49.52,-33.19,-45.69,-53.14,-55.09
2021/05/05 00:57:29+0000,-41.59,-49.46,-33.22,-48.23,-52.59,-54.21
2021/05/05 00:58:21+0000,-41.79,-49.69,-32.34,-48.47,-53.23,-54.16
2021/05/05 00:59:13+0000,-42.39,-46.67,-32.16,-47.14,-52.72,-55.04
2021/05/05 01:00:05+0000,-42.31,-48.90,-32.24,-48.30,-52.69,-55.38
2021/05/05 01:01:07+0000,-42.11,-50.27,-32.33,-46.29,-52.92,-54.77
2021/05/05 01:01:59+0000,-42.65,-46.96,-31.81,-47.46,-52.56,-55.14
2021/05/05 01:02:51+0000,-41.74,-50.14,-31.70,-47.67,-52.23,-54.81
2021/05/05 01:03:43+0000,-42.95,-49.87,-31.80,-47.82,-52.93,-54.63
2021/05/05 01:04:35+0000,-42.29,-49.59,-33.09,-47.77,-53.25,-54.07
2021/05/05 01:05:27+0000,-42.66,-48.67,-32.25,-47.80,-53.10,-54.49
2021/05/05 01:06:19+0000,-41.60,-49.65,-33.17,-47.83,-53.33,-54.95
2021/05/05 01:07:11+0000,-42.28,-50.52,-33.35,-47.54,-52.76,-55.15
2021/05/05 01:08:04+0000,-42.81,-50.05,-31.80,-48.40,-52.56,-55.43
2021/05/05 01:08:56+0000,-43.14,-49.99,-32.27,-47.86,-52.77,-55.75
2021/05/05 01:09:48+0000,-42.80,-49.59,-32.39,-48.18,-53.41,-54.88
2021/05/05 01:10:40+0000,-43.56,-48.87,-33.49,-48.04,-53.31,-55.31
2021/05/05 01:11:50+0000,-42.90,-49.71,-31.70,-47.99,-53.21,-55.30
2021/05/05 01:12:42+0000,-40.91,-49.43,-32.84,-48.32,-53.35,-55.43
2021/05/05 01:13:34+0000,-40.46,-49.95,-33.88,-48.65,-53.42,-54.86
2021/05/05 01:14:26+0000,-39.45,-48.77,-33.86,-48.51,-53.30,-54.98
2021/05/05 01:15:18+0000,-41.29,-48.09,-34.23,-49.25,-53.84,-55.23
2021/05/05 01:16:10+0000,-39.91,-49.01,-34.07,-47.80,-53.48,-55.30
2021/05/05 01:17:02+0000,-40.34,-48.68,-33.43,-47.71,-53.09,-54.82
2021/05/05 01:17:54+0000,-41.65,-48.95,-33.28,-47.07,-52.84,-54.89
2021/05/05 01:18:46+0000,-40.89,-48.73,-32.08,-47.98,-53.30,-54.94
2021/05/05 01:19:38+0000,-40.63,-49.75,-32.95,-48.23,-53.46,-55.26
2021/05/05 01:20:30+0000,-39.66,-48.98,-32.82,-47.09,-54.17,-55.18
2021/05/05 01:21:34+0000,-41.20,-48.14,-32.86,-48.78,-53.10,-55.48
2021/05/05 01:22:26+0000,-40.92,-48.46,-33.20,-47.34,-53.45,-55.07
2021/05/05 01:23:18+0000,-41.27,-49.25,-33.07,-48.41,-53.51,-55.76
2021/05/05 01:24:10+0000,-41.15,-49.64,-32.00,-47.89,-53.73,-55.70
2021/05/05 01:25:02+0000,-40.01,-48.04,-32.20,-46.84,-54.15,-55.71
2021/05/05 01:25:55+0000,-41.63,-48.17,-32.83,-47.29,-53.50,-55.64
2021/05/05 01:26:47+0000,-41.51,-49.03,-32.16,-48.61,-53.98,-55.81
2021/05/05 01:27:39+0000,-42.01,-46.75,-31.88,-47.80,-53.59,-55.36
2021/05/05 01:28:31+0000,-40.50,-48.33,-33.07,-47.12,-53.43,-55.86
2021/05/05 01:29:23+0000,-40.75,-49.14,-32.94,-43.88,-53.29,-55.48
2021/05/05 01:30:15+0000,-42.73,-43.26,-33.41,-47.61,-53.75,-56.30
2021/05/05 01:31:18+0000,-40.99,-46.09,-33.33,-47.94,-52.99,-56.14
2021/05/05 01:32:10+0000,-42.18,-46.44,-32.67,-47.82,-53.81,-55.96
2021/05/05 01:33:02+0000,-41.48,-48.95,-33.10,-45.96,-53.98,-55.53
2021/05/05 01:33:54+0000,-38.85,-48.45,-32.96,-47.60,-54.20,-55.66
2021/05/05 01:34:46+0000,-40.46,-48.92,-32.81,-47.78,-53.69,-55.42
2021/05/05 01:35:38+0000,-40.20,-49.46,-32.18,-46.40,-53.82,-55.69
2021/05/05 01:36:30+0000,-40.91,-48.80,-32.67,-43.34,-53.48,-55.64
2021/05/05 01:37:22+0000,-40.02,-50.25,-33.04,-43.36,-54.29,-55.52
2021/05/05 01:38:14+0000,-41.00,-47.63,-32.72,-47.03,-54.60,-55.65
2021/05/05 01:39:06+0000,-41.11,-50.27,-33.59,-46.90,-53.51,-55.73
2021/05/05 01:39:58+0000,-41.82,-49.03,-33.15,-43.56,-53.86,-55.55
2021/05/05 01:40:50+0000,-41.49,-48.27,-33.11,-48.01,-54.02,-55.37
2021/05/05 01:41:51+0000,-41.34,-50.03,-33.30,-44.09,-54.19,-55.75
2021/05/05 01:42:43+0000,-40.51,-48.59,-32.82,-47.73,-54.00,-55.36
2021/05/05 01:43:35+0000,-41.56,-48.35,-32.35,-48.49,-53.92,-55.64
2021/05/05 01:44:27+0000,-39.73,-48.78,-32.90,-42.10,-53.65,-55.72
2021/05/05 01:45:19+0000,-40.47,-47.97,-32.45,-47.68,-53.95,-55.41
2021/05/05 01:46:11+0000,-40.88,-48.83,-32.45,-46.56,-53.81,-55.28
2021/05/05 01:47:03+0000,-41.45,-48.29,-32.70,-44.28,-53.70,-55.93
2021/05/05 01:47:55+0000,-41.85,-48.53,-32.86,-45.27,-53.95,-55.31
2021/05/05 01:48:47+0000,-40.34,-48.10,-32.55,-47.30,-54.16,-54.98
2021/05/05 01:49:40+0000,-40.58,-47.48,-32.84,-47.50,-54.31,-55.12
2021/05/05 01:50:32+0000,-40.63,-47.74,-33.46,-46.04,-54.24,-55.52
2021/05/05 01:51:31+0000,-42.21,-47.72,-32.57,-45.94,-54.52,-55.37
2021/05/05 01:52:23+0000,-42.20,-50.01,-32.55,-45.73,-53.86,-55.71
2021/05/05 01:53:15+0000,-40.51,-45.83,-32.94,-46.84,-54.40,-55.18
2021/05/05 01:54:07+0000,-40.58,-49.87,-32.98,-46.93,-54.22,-55.83
2021/05/05 01:54:59+0000,-39.96,-48.53,-33.06,-45.99,-54.34,-55.28
2021/05/05 01:55:51+0000,-40.71,-46.26,-33.08,-47.95,-53.86,-55.79
2021/05/05 01:56:43+0000,-39.54,-47.16,-32.87,-47.08,-54.34,-55.85
2021/05/05 01:57:35+0000,-39.46,-48.89,-32.82,-47.56,-54.59,-55.81
2021/05/05 01:58:27+0000,-40.80,-49.03,-32.25,-45.51,-54.01,-55.91
2021/05/05 01:59:19+0000,-41.12,-45.52,-32.07,-47.34,-54.63,-56.36
2021/05/05 02:00:12+0000,-39.95,-45.39,-33.56,-47.28,-53.48,-55.56
2021/05/05 02:01:12+0000,-40.96,-46.86,-33.36,-46.74,-54.05,-55.67
2021/05/05 02:02:04+0000,-40.30,-48.31,-33.16,-48.19,-53.49,-56.28
2021/05/05 02:02:56+0000,-40.52,-46.93,-32.88,-44.63,-54.19,-55.48
2021/05/05 02:03:48+0000,-39.49,-46.98,-33.26,-48.40,-53.16,-55.68
2021/05/05 02:04:40+0000,-40.75,-47.08,-32.68,-46.78,-53.49,-55.99
2021/05/05 02:05:32+0000,-41.48,-48.46,-32.51,-46.08,-53.65,-56.12
2021/05/05 02:06:24+0000,-40.54,-47.51,-33.21,-44.69,-53.70,-56.07
2021/05/05 02:07:16+0000,-40.76,-48.07,-33.57,-46.80,-53.96,-56.30
2021/05/05 02:08:08+0000,-41.32,-47.73,-32.81,-46.78,-53.45,-56.29
2021/05/05 02:09:00+0000,-40.24,-47.69,-32.59,-43.64,-53.21,-56.19
2021/05/05 02:09:52+0000,-41.17,-49.40,-33.36,-44.44,-53.39,-55.97
2021/05/05 02:10:44+0000,-41.72,-47.98,-32.97,-47.38,-53.64,-55.87
2021/05/05 02:11:44+0000,-41.76,-47.75,-33.90,-45.90,-53.45,-55.97
2021/05/05 02:12:36+0000,-40.20,-49.06,-33.81,-46.53,-54.26,-55.87
2021/05/05 02:13:29+0000,-40.51,-47.57,-33.17,-44.45,-53.24,-55.64
2021/05/05 02:14:21+0000,-40.95,-49.05,-32.95,-42.05,-53.66,-55.97
2021/05/05 02:15:13+0000,-40.07,-46.78,-33.51,-46.06,-53.74,-55.81
2021/05/05 02:16:05+0000,-40.47,-48.24,-32.82,-47.43,-53.58,-56.35
2021/05/05 02:16:57+0000,-40.40,-48.25,-33.99,-44.39,-53.61,-56.20
2021/05/05 02:17:49+0000,-39.32,-44.80,-33.28,-46.32,-52.86,-55.63
2021/05/05 02:18:41+0000,-39.65,-46.61,-33.47,-46.58,-53.80,-55.86
2021/05/05 02:19:33+0000,-39.79,-47.41,-33.68,-47.08,-53.58,-56.21
2021/05/05 02:20:25+0000,-41.61,-47.85,-32.32,-44.66,-53.55,-56.22
2021/05/05 02:21:25+0000,-39.70,-47.90,-33.05,-44.40,-53.17,-56.07
2021/05/05 02:22:17+0000,-39.86,-47.59,-32.81,-46.33,-53.72,-55.38
2021/05/05 02:23:09+0000,-39.56,-44.31,-33.72,-46.36,-53.78,-56.39
2021/05/05 02:24:01+0000,-40.60,-47.49,-32.83,-43.01,-53.85,-55.90
2021/05/05 02:24:53+0000,-41.48,-48.04,-33.04,-44.94,-53.74,-55.87
2021/05/05 02:25:45+0000,-41.58,-42.55,-33.29,-47.09,-54.00,-56.00
2021/05/05 02:26:37+0000,-40.11,-49.35,-32.70,-47.01,-54.23,-56.18
2021/05/05 02:27:29+0000,-41.06,-47.29,-33.06,-45.95,-54.29,-56.36
2021/05/05 02:28:21+0000,-40.60,-50.11,-32.96,-45.89,-54.46,-55.76
2021/05/05 02:29:13+0000,-40.87,-48.02,-32.64,-43.56,-53.96,-56.17
2021/05/05 02:30:05+0000,-41.10,-48.60,-33.03,-44.41,-53.75,-55.82
2021/05/05 02:31:07+0000,-40.33,-50.28,-32.83,-46.71,-53.59,-56.01
2021/05/05 02:31:59+0000,-38.93,-47.82,-32.77,-43.43,-52.75,-56.23
2021/05/05 02:32:51+0000,-40.92,-48.63,-32.75,-45.75,-53.41,-56.04
2021/05/05 02:33:43+0000,-41.32,-45.07,-33.11,-43.86,-53.56,-56.24
2021/05/05 02:34:35+0000,-38.60,-44.74,-32.70,-46.83,-53.75,-56.07
2021/05/05 02:35:27+0000,-40.17,-44.26,-32.90,-45.06,-54.01,-56.12
2021/05/05 02:36:19+0000,-40.65,-44.88,-32.53,-46.93,-54.22,-56.19
2021/05/05 02:37:11+0000,-40.68,-43.18,-32.85,-47.52,-53.60,-55.79
2021/05/05 02:38:03+0000,-41.57,-44.65,-32.69,-46.43,-53.50,-54.95
2021/05/05 02:38:55+0000,-40.69,-43.70,-32.34,-46.39,-53.25,-55.80
2021/05/05 02:39:47+0000,-40.91,-41.47,-32.26,-45.35,-53.18,-56.16
2021/05/05 02:40:39+0000,-40.24,-45.37,-32.24,-46.91,-52.94,-55.94
2021/05/05 02:41:39+0000,-40.80,-43.45,-32.25,-47.50,-53.91,-55.00
2021/05/05 02:42:31+0000,-39.75,-45.23,-31.49,-44.14,-53.43,-55.35
2021/05/05 02:43:23+0000,-41.49,-45.66,-31.42,-44.72,-53.15,-55.57
2021/05/05 02:44:15+0000,-41.04,-41.67,-31.38,-46.31,-53.36,-55.44
2021/05/05 02:45:08+0000,-40.36,-46.35,-31.39,-47.03,-53.79,-55.82
2021/05/05 02:46:00+0000,-40.07,-44.56,-31.46,-44.68,-53.18,-55.45
2021/05/05 02:46:52+0000,-41.28,-38.52,-31.13,-44.31,-53.56,-55.95
2021/05/05 02:47:44+0000,-41.66,-38.03,-31.75,-46.04,-53.44,-55.47
2021/05/05 02:48:36+0000,-40.62,-44.82,-31.89,-46.74,-53.73,-55.70
2021/05/05 02:49:28+0000,-40.18,-45.03,-32.04,-43.23,-54.13,-55.98
2021/05/05 02:50:20+0000,-40.65,-37.92,-31.46,-46.27,-53.70,-55.95
2021/05/05 02:51:21+0000,-41.02,-38.20,-31.68,-45.20,-53.31,-55.97
2021/05/05 02:52:13+0000,-41.68,-38.58,-32.36,-46.36,-53.96,-55.98
2021/05/05 02:53:05+0000,-41.67,-46.11,-32.51,-45.14,-53.69,-56.04
2021/05/05 02:53:57+0000,-40.63,-44.74,-32.54,-44.32,-52.80,-55.13
2021/05/05 02:54:49+0000,-41.39,-38.37,-32.99,-47.94,-53.84,-55.34
2021/05/05 02:55:42+0000,-40.97,-38.30,-32.53,-46.45,-53.70,-55.78
2021/05/05 02:56:34+0000,-41.39,-44.27,-32.79,-43.87,-53.86,-56.03
2021/05/05 02:57:26+0000,-40.13,-43.88,-32.17,-43.09,-53.68,-56.01
2021/05/05 02:58:18+0000,-40.59,-44.76,-32.90,-45.98,-53.57,-55.56
2021/05/05 02:59:10+0000,-40.81,-45.95,-32.59,-45.69,-53.11,-55.10
2021/05/05 03:00:02+0000,-41.02,-43.98,-33.03,-45.50,-53.92,-56.05
2021/05/05 03:01:03+0000,-40.41,-44.59,-33.02,-46.00,-53.87,-55.92
2021/05/05 03:01:55+0000,-41.39,-44.26,-32.84,-45.73,-53.26,-55.71
2021/05/05 03:02:47+0000,-40.22,-46.22,-32.13,-47.11,-53.30,-55.18
2021/05/05 03:03:39+0000,-39.46,-38.74,-32.06,-46.45,-54.08,-56.05
2021/05/05 03:04:31+0000,-41.40,-41.58,-32.39,-44.94,-53.65,-55.75
2021/05/05 03:05:23+0000,-38.98,-43.43,-33.34,-44.72,-53.22,-55.93
2021/05/05 03:06:15+0000,-40.25,-38.94,-32.48,-43.33,-53.36,-56.04
2021/05/05 03:07:07+0000,-40.32,-47.01,-32.95,-44.55,-52.97,-55.63
2021/05/05 03:08:00+0000,-40.17,-44.09,-32.30,-45.10,-53.65,-55.59
2021/05/05 03:08:52+0000,-40.80,-48.07,-32.69,-45.00,-53.91,-56.00
2021/05/05 03:09:44+0000,-41.46,-46.82,-32.46,-43.81,-53.31,-55.48
2021/05/05 03:10:36+0000,-40.35,-48.82,-32.63,-46.57,-53.80,-55.97
2021/05/05 03:11:37+0000,-41.86,-48.61,-32.80,-46.08,-53.44,-56.16
2021/05/05 03:12:29+0000,-41.54,-44.56,-32.83,-44.68,-53.95,-55.63
2021/05/05 03:13:21+0000,-40.77,-49.37,-32.79,-44.67,-53.28,-55.59
2021/05/05 03:14:13+0000,-41.70,-47.16,-32.63,-46.46,-53.34,-56.08
2021/05/05 03:15:05+0000,-41.06,-43.72,-31.97,-46.20,-53.63,-56.08
2021/05/05 03:15:57+0000,-39.43,-44.46,-32.66,-44.46,-53.85,-55.61
2021/05/05 03:16:49+0000,-41.41,-46.61,-32.16,-47.66,-53.72,-55.80
2021/05/05 03:17:41+0000,-39.12,-38.13,-32.36,-43.07,-53.60,-55.87
2021/05/05 03:18:33+0000,-40.12,-43.50,-32.61,-47.05,-53.40,-55.89
2021/05/05 03:19:25+0000,-37.74,-44.34,-32.79,-46.50,-53.40,-55.68
2021/05/05 03:20:17+0000,-39.07,-38.71,-32.07,-47.30,-52.90,-56.00
2021/05/05 03:21:17+0000,-40.74,-38.66,-32.46,-47.63,-53.42,-56.22
2021/05/05 03:22:09+0000,-39.46,-38.77,-32.71,-46.77,-53.65,-55.80
2021/05/05 03:23:01+0000,-40.30,-44.46,-32.43,-46.79,-54.24,-56.23
2021/05/05 03:23:53+0000,-38.02,-46.80,-32.34,-43.96,-53.92,-55.37
2021/05/05 03:24:45+0000,-41.60,-45.52,-31.93,-47.69,-52.76,-55.97
2021/05/05 03:25:37+0000,-38.60,-46.22,-31.85,-46.79,-53.20,-56.16
2021/05/05 03:26:29+0000,-40.00,-43.50,-32.24,-45.88,-54.10,-56.74
2021/05/05 03:27:21+0000,-38.96,-45.22,-32.24,-46.82,-53.07,-55.98
2021/05/05 03:28:13+0000,-39.51,-45.11,-32.73,-45.43,-53.48,-56.45
2021/05/05 03:29:05+0000,-39.62,-47.60,-32.22,-45.87,-53.83,-56.35
2021/05/05 03:29:58+0000,-39.56,-43.27,-32.98,-43.39,-54.25,-56.01
2021/05/05 03:30:50+0000,-38.77,-46.73,-32.48,-48.53,-54.00,-56.09
2021/05/05 03:31:50+0000,-40.09,-44.71,-32.41,-49.01,-53.70,-55.81
2021/05/05 03:32:42+0000,-39.47,-43.84,-32.21,-41.89,-54.15,-56.11
2021/05/05 03:33:34+0000,-40.04,-43.85,-32.29,-48.14,-53.69,-56.24
2021/05/05 03:34:26+0000,-39.31,-44.40,-32.81,-46.20,-53.15,-55.65
2021/05/05 03:35:18+0000,-39.10,-44.04,-31.80,-43.37,-53.53,-56.09
2021/05/05 03:36:10+0000,-39.57,-43.85,-32.47,-41.23,-53.62,-55.99
2021/05/05 03:37:02+0000,-39.97,-46.02,-32.21,-44.92,-52.94,-56.46
2021/05/05 03:37:54+0000,-37.77,-45.16,-32.68,-44.57,-53.84,-56.02
2021/05/05 03:38:46+0000,-38.97,-45.02,-32.54,-43.88,-53.72,-56.75
2021/05/05 03:39:39+0000,-40.09,-44.39,-32.09,-43.32,-53.66,-56.12
2021/05/05 03:40:31+0000,-39.16,-44.13,-32.43,-45.16,-53.16,-56.35
2021/05/05 03:41:32+0000,-40.31,-43.03,-32.71,-45.23,-53.85,-56.08
2021/05/05 03:42:24+0000,-38.59,-44.26,-32.54,-44.02,-53.73,-55.47
2021/05/05 03:43:16+0000,-40.34,-38.37,-32.45,-40.12,-53.75,-55.75
2021/05/05 03:44:08+0000,-38.93,-44.24,-32.78,-41.25,-54.00,-56.04
2021/05/05 03:45:00+0000,-40.43,-44.13,-32.25,-46.13,-53.22,-55.93
2021/05/05 03:45:53+0000,-39.83,-48.79,-32.38,-46.35,-53.53,-56.19
2021/05/05 03:46:45+0000,-37.93,-44.70,-32.63,-40.26,-53.41,-56.32
2021/05/05 03:47:37+0000,-39.06,-39.21,-32.65,-42.00,-53.70,-56.24
2021/05/05 03:48:29+0000,-37.51,-37.66,-32.91,-46.94,-54.19,-56.04
2021/05/05 03:49:21+0000,-38.35,-44.65,-32.55,-47.42,-53.16,-56.05
2021/05/05 03:50:13+0000,-40.09,-45.39,-32.71,-41.61,-52.21,-56.21
2021/05/05 03:51:17+0000,-40.31,-45.25,-32.07,-43.58,-54.33,-55.98
2021/05/05 03:52:09+0000,-39.72,-45.68,-32.01,-43.59,-53.68,-56.21
2021/05/05 03:53:01+0000,-40.49,-36.99,-32.39,-47.50,-53.25,-55.80
2021/05/05 03:53:53+0000,-38.22,-47.55,-32.58,-48.17,-54.13,-56.57
2021/05/05 03:54:45+0000,-41.05,-46.30,-32.01,-45.51,-53.89,-56.02
2021/05/05 03:55:37+0000,-39.35,-47.12,-32.35,-44.44,-53.57,-55.85
2021/05/05 03:56:29+0000,-38.17,-43.49,-32.66,-48.64,-54.44,-56.28
2021/05/05 03:57:21+0000,-38.55,-38.46,-32.96,-49.32,-54.04,-55.89
2021/05/05 03:58:13+0000,-39.61,-38.84,-32.64,-44.18,-53.84,-55.34
2021/05/05 03:59:05+0000,-32.72,-43.20,-33.11,-50.01,-54.05,-56.52
2021/05/05 03:59:57+0000,-39.26,-45.53,-32.77,-49.26,-53.83,-56.03
2021/05/05 04:00:49+0000,-38.76,-45.75,-32.26,-49.57,-54.00,-56.46
2021/05/05 04:01:51+0000,-36.54,-48.19,-32.39,-49.28,-53.92,-55.69
2021/05/05 04:02:43+0000,-41.42,-46.52,-32.47,-44.31,-54.01,-56.15
2021/05/05 04:03:35+0000,-41.14,-48.12,-32.79,-44.72,-53.38,-55.59
2021/05/05 04:04:27+0000,-36.14,-45.02,-32.91,-47.19,-54.07,-55.63
2021/05/05 04:05:19+0000,-39.15,-47.86,-32.78,-46.42,-54.15,-55.68
2021/05/05 04:06:11+0000,-41.01,-46.83,-32.68,-44.79,-53.30,-56.29
2021/05/05 04:07:03+0000,-41.33,-44.57,-32.25,-51.18,-53.90,-56.32
2021/05/05 04:07:55+0000,-38.25,-45.34,-33.03,-48.29,-53.94,-55.55
2021/05/05 04:08:47+0000,-39.93,-45.91,-32.93,-49.37,-53.97,-55.90
2021/05/05 04:09:40+0000,-38.65,-47.43,-32.35,-42.99,-54.15,-55.92
2021/05/05 04:10:32+0000,-38.47,-43.01,-32.04,-47.54,-53.97,-55.75
2021/05/05 04:11:33+0000,-39.10,-44.25,-31.50,-48.53,-54.12,-55.96
2021/05/05 04:12:25+0000,-39.92,-45.36,-31.82,-48.59,-53.87,-56.18
2021/05/05 04:13:17+0000,-39.59,-47.54,-32.54,-48.18,-54.04,-56.07
2021/05/05 04:14:09+0000,-40.27,-47.15,-32.22,-39.21,-53.78,-56.44
2021/05/05 04:15:01+0000,-39.21,-44.80,-31.24,-47.56,-54.12,-55.65
2021/05/05 04:15:53+0000,-39.78,-42.84,-32.35,-47.86,-53.82,-56.00
2021/05/05 04:16:45+0000,-40.81,-47.05,-32.26,-43.58,-53.81,-55.39
2021/05/05 04:17:37+0000,-40.01,-47.94,-31.93,-44.64,-54.09,-56.05
2021/05/05 04:18:29+0000,-40.04,-44.25,-31.42,-48.05,-53.72,-55.61
2021/05/05 04:19:21+0000,-40.17,-48.51,-32.52,-44.05,-54.29,-56.16
2021/05/05 04:20:14+0000,-41.42,-47.50,-32.01,-42.88,-53.58,-55.80
2021/05/05 04:21:15+0000,-39.52,-48.04,-32.51,-40.80,-54.18,-55.72
2021/05/05 04:22:07+0000,-40.21,-48.18,-32.52,-43.27,-54.19,-55.84
2021/05/05 04:22:59+0000,-39.97,-44.96,-32.31,-46.47,-54.17,-55.94
2021/05/05 04:23:51+0000,-38.62,-48.81,-32.04,-47.69,-53.92,-55.93
2021/05/05 04:24:43+0000,-39.73,-45.96,-32.73,-43.03,-54.24,-55.80
2021/05/05 04:25:35+0000,-39.31,-46.17,-32.57,-48.84,-53.94,-55.46
2021/05/05 04:26:27+0000,-38.63,-46.49,-32.52,-46.28,-54.13,-55.82
2021/05/05 04:27:19+0000,-39.75,-46.18,-32.82,-49.90,-54.18,-55.84
2021/05/05 04:28:11+0000,-40.83,-47.33,-32.09,-39.66,-53.72,-55.94
2021/05/05 04:29:03+0000,-39.43,-45.81,-32.35,-49.65,-54.07,-55.48
2021/05/05 04:29:55+0000,-39.61,-45.53,-33.06,-48.79,-53.65,-55.76
2021/05/05 04:30:47+0000,-38.71,-47.18,-32.48,-40.15,-53.87,-55.67
2021/05/05 04:31:47+0000,-38.84,-47.79,-33.14,-41.85,-54.34,-55.69
2021/05/05 04:32:40+0000,-39.54,-46.96,-32.90,-35.38,-53.84,-56.06
2021/05/05 04:33:32+0000,-40.04,-45.59,-31.86,-50.27,-53.47,-55.88
2021/05/05 04:34:24+0000,-39.94,-44.63,-33.02,-47.64,-53.75,-55.61
2021/05/05 04:35:16+0000,-40.32,-46.56,-33.19,-39.80,-53.79,-55.71
2021/05/05 04:36:08+0000,-40.37,-48.30,-31.83,-39.83,-53.52,-54.94
2021/05/05 04:37:00+0000,-40.81,-46.09,-32.19,-48.41,-53.89,-55.99
2021/05/05 04:37:52+0000,-40.01,-47.98,-33.17,-48.70,-54.00,-55.84
2021/05/05 04:38:44+0000,-39.33,-44.31,-33.23,-43.05,-53.69,-55.20
2021/05/05 04:39:36+0000,-38.97,-48.24,-32.41,-40.05,-54.30,-55.94
2021/05/05 04:40:28+0000,-39.31,-43.86,-33.98,-46.55,-53.42,-55.54
2021/05/05 04:41:29+0000,-38.86,-44.56,-32.84,-40.68,-53.75,-55.80
2021/05/05 04:42:21+0000,-38.96,-46.29,-31.81,-45.79,-53.72,-55.80